Weather History for GMFM - February, 2013

Change the Weather History Date:

Thursday, February 14, 2013

  Actual Average Record
Temperature  
Mean Temperature 50 °F -  
Max Temperature 66 °F - - ()
Min Temperature 35 °F - - ()
Degree Days  
Heating Degree Days 14    
Moisture  
Dew Point 43 °F    
Average Humidity 76    
Maximum Humidity 94    
Minimum Humidity 48    
Precipitation  
Precipitation 0.00 in - - ()
Sea Level Pressure  
Sea Level Pressure 30.16 in    
Wind  
Wind Speed 5 mph ()    
Max Wind Speed 8 mph    
Max Gust Speed -    
Visibility 6.4 miles    
Events      
T = Trace of Precipitation, MM = Missing Value Source: Averaged Metar Reports

Daily Weather History Graph

Daily Weather History Graph

Search for Another Location

Airport or City:

Trip Planner

Search our weather history database for the weather conditions in past years. The results will help you decide how hot, cold, wet, or windy it might be!

Date:

Astronomy

Feb. 14, 2013 Rise Set
Actual Time 7:07 AM WET 6:05 PM WET
Civil Twilight 6:42 AM WET 6:30 PM WET
Nautical Twilight 6:12 AM WET 7:00 PM WET
Astronomical Twilight 5:43 AM WET 7:29 PM WET
Moon 9:16 AM WET (2/14) 10:37 PM WET (2/14)
Length of Visible Light 11h 48m
Length of Day
10h 57m
Waxing Crescent, 19% of the Moon is Illuminated
Feb 14
Waxing Crescent
Feb 17
First Quarter
Feb 25
Full
Mar 4
Last Quarter
Mar 11
New

Hourly Weather History & Observations

Time (WET) Temp. Windchill Dew Point Humidity Pressure Visibility Wind Dir Wind Speed Gust Speed Precip Events Conditions
12:00 AM 43 °F - 40 °F 85% 30.27 in 6 mi SE 5.8 mph - -  
12:00 AM 42.8 °F 39.3 °F 41.0 °F 93% 30.21 in - SE 5.8 mph - N/A   Clear
1:00 AM 42.8 °F 38.6 °F 41.0 °F 93% 30.21 in - ESE 6.9 mph - N/A   Clear
2:00 AM 42.8 °F 38.6 °F 39.2 °F 87% 30.18 in - ESE 6.9 mph - N/A   Clear
3:00 AM 41 °F - 39 °F 88% 30.22 in 6 mi ESE 5.8 mph - -  
3:00 AM 41.0 °F 37.1 °F 39.2 °F 93% 30.18 in - ESE 5.8 mph - N/A   Clear
4:00 AM 41.0 °F 38.0 °F 37.4 °F 87% 30.18 in - ESE 4.6 mph - N/A   Clear
5:00 AM 41.0 °F 35.8 °F 37.4 °F 87% 30.15 in - ESE 8.1 mph - N/A   Clear
6:00 AM 42 °F - 38 °F 80% 30.21 in 6 mi ESE 5.8 mph - -  
6:00 AM 41.0 °F 37.1 °F 37.4 °F 87% 30.15 in - ESE 5.8 mph - N/A   Clear
7:00 AM 35.6 °F - 32.0 °F 87% 30.15 in - East 2.3 mph - N/A   Clear
8:00 AM 41.0 °F 38.0 °F 37.4 °F 87% 30.18 in - SSE 4.6 mph - N/A   Clear
9:00 AM 48 °F - 41 °F 70% 30.20 in 6 mi ENE 5.8 mph - -  
9:00 AM 48.2 °F - 41.0 °F 76% 30.18 in - ENE 5.8 mph - N/A   Clear
10:00 AM 53.6 °F - 42.8 °F 67% 30.18 in - East 6.9 mph - N/A   Clear
11:00 AM 57.2 °F - 44.6 °F 63% 30.18 in - East 8.1 mph - N/A   Clear
12:00 PM 61 °F - 46 °F 48% 30.14 in 6 mi ENE 4.6 mph - -  
12:00 PM 60.8 °F - 46.4 °F 59% 30.15 in - ENE 4.6 mph - N/A   Clear
1:00 PM 62.6 °F - 46.4 °F 55% 30.15 in - NE 6.9 mph - N/A   Clear
2:00 PM 64.4 °F - 44.6 °F 49% 30.15 in - NNE 4.6 mph - N/A   Clear
3:00 PM 64.4 °F - 46.4 °F 52% 30.12 in - ENE 3.5 mph - N/A   Clear
4:00 PM 66.2 °F - 46.4 °F 49% 30.12 in - NNE 2.3 mph - N/A   Clear
5:00 PM 64.4 °F - 50.0 °F 59% 30.12 in - NNW 4.6 mph - N/A   Clear
6:00 PM 60 °F - 51 °F 63% 30.10 in 9 mi NW 3.5 mph - -  
6:00 PM 59.0 °F - 50.0 °F 72% 30.12 in - NW 3.5 mph - N/A   Clear
7:00 PM 57.2 °F - 50.0 °F 77% 30.12 in - WNW 2.3 mph - N/A   Clear
8:00 PM 53.6 °F - 48.2 °F 82% 30.15 in - West 2.3 mph - N/A   Clear
9:00 PM 50 °F - 47 °F 85% 30.17 in 6 mi South 4.6 mph - -  
9:00 PM 50.0 °F - 46.4 °F 87% 30.15 in - South 4.6 mph - N/A   Clear
10:00 PM 50.0 °F - 48.2 °F 94% 30.15 in - SSW 4.6 mph - N/A   Clear
11:00 PM 46.4 °F 44.3 °F 44.6 °F 93% 30.15 in - SSW 4.6 mph - N/A   Clear